Site menu:

About:

weather.olc.net provides weather information from NOAA, the National Weather Service, Weather Underground, and current weather data collected outside of Orangeburg, SC near Great Branch.


Today's Forecast

Tonight

Tonight: A chance of showers and thunderstorms, mainly before 3am.  Mostly cloudy, with a low around 74. South wind around 5 mph becoming calm  after midnight.  Chance of precipitation is 30%. New rainfall amounts between a tenth and quarter of an inch, except higher amounts possible in thunderstorms.
Chance
T-storms

Low: 74 °F

Saturday

Saturday: Showers and thunderstorms, mainly after noon.  High near 89. Light and variable wind.  Chance of precipitation is 80%. New rainfall amounts between a half and three quarters of an inch possible.
Chance
T-storms then
T-storms
High: 89 °F

Weather Almanac

Columbia Metro Airport

Aug 24th Weather Records
Astronomical Info

Sunrise:
06:52 am

Sunset:
07:59 pm
Civil Twilight    
Dawn:
06:27 am
Dusk:
08:24 pm
Moonset: 02:06 pm
Moonrise: 12:00 am
Last Qtr.Aug 23
New MoonAug 30
First Qtr.Sep 05
Full MoonSep 14
Current PhaseWaning Crescent 44%

Regional Weather Roundup
Issued by NWS Columbia, SC


000
ASUS42 KCAE 240410
RWRCAE
REGIONAL WEATHER ROUNDUP
NATIONAL WEATHER SERVICE COLUMBIA SC
1200 AM EDT SAT AUG 24 2019

NOTE: "FAIR" INDICATES FEW OR NO CLOUDS BELOW 12,000 FEET WITH NO
SIGNIFICANT WEATHER AND/OR OBSTRUCTIONS TO VISIBILITY.

NOT ALL STATIONS ARE QUALITY CONTROLLED BY THE NATIONAL
WEATHER SERVICE. USE DATA WITH CAUTION...ESPECIALLY
DEWPOINT OBSERVATIONS.

SCZ001>056-GAZ040-063>065-077-240500-
...UPSTATE SOUTH CAROLINA...

CITY           SKY/WX    TMP DP  RH WIND       PRES   REMARKS
ANDERSON       FAIR      74  69  85 SW6       30.05R
LIBERTY        FAIR      74  74 100 SE3       30.04S FOG
SPARTANBURG    FAIR      73  70  88 CALM      30.05R
CLEMSON        FAIR      75  70  84 CALM      30.06R
GREENVILLE     FAIR      78  73  84 CALM      30.06R
GREENWOOD      CLOUDY    73  73 100 S9        30.06R
GREER          MOCLDY    74  71  91 CALM      30.05S
ROCK HILL      FAIR      72  70  93 CALM      30.06R
CHESTER        MOCLDY    70  70 100 CALM      30.08R
LAURENS        FAIR      73  72  94 SW7       30.05R


...CENTRAL SOUTH CAROLINA...

CITY           SKY/WX    TMP DP  RH WIND       PRES   REMARKS
COLUMBIA APT   LGT RAIN  73  70  90 S8        30.05S
COLUMBIA OWENS FAIR      74  69  85 W5        30.07R
MCENTIRE ANGB  MOCLDY    74  74 100 W9        30.07R
ORANGEBURG     CLOUDY    74  69  85 W17G24    30.10R
SUMTER SHAW    MOCLDY    74  73  96 SW3       30.05R
AIKEN          TSTM      70  70 100 S3        30.11F
BARNWELL       TSTM      70  68  94 E7        30.10F
MANNING        FAIR      72  70  94 CALM      30.05R
CAMDEN         CLOUDY    73  72  94 CALM      30.05R
LANCASTER      FAIR      72  72 100 CALM      30.05R
WINNSBORO      TSTM      70  70 100 S14G25    30.06R


...EASTERN AND COASTAL SOUTH CAROLINA...

CITY           SKY/WX    TMP DP  RH WIND       PRES   REMARKS
MYRTLE BEACH   FAIR      76  72  87 NW5       30.04S
N MYRTLE BCH   FAIR      76  72  87 CALM      30.03S
CONWAY         FAIR      72  70  94 CALM      30.04S FOG
MARION         FAIR      72  70  94 CALM      30.04F
HARTSVILLE     FAIR      72  72 100 CALM      30.04R
FLORENCE       FAIR      73  71  93 S3        30.04S
DARLINGTON     FAIR      73  72  96 SW3       30.05R
CHARLESTON APT FAIR      79  75  87 CALM      30.03R
MOUNT PLEASANT FAIR      77  77 100 CALM      30.02S
WALTERBORO     FAIR      73  73 100 CALM      30.05R
BEAUFORT       FAIR      80  78  94 NW5       30.03R
HILTON HEAD    FAIR      82  77  83 VRB3      30.03S


...EASTERN GEORGIA...

CITY           SKY/WX    TMP DP  RH WIND       PRES   REMARKS
AUGUSTA BUSH F RAIN      73  71  93 SE6       30.05F FOG
AUGUSTA DANIEL LGT RAIN  74  70  87 E5        30.07S
THOMSON        LGT RAIN  72  72 100 SW5       30.05S
WASHINGTON     MOCLDY    72  72 100 SE3       30.04F
CLAXTON        FAIR      81  75  84 CALM      30.04S
SYLVANIA         N/A     78  74  87 N6        30.07R
STATESBORO     FAIR      76  73  90 NE3       30.05S
SAVANNAH       FAIR      81  75  82 CALM      30.02F


...SOUTHERN NORTH CAROLINA...

CITY           SKY/WX    TMP DP  RH WIND       PRES   REMARKS
CHARLOTTE      FAIR      73  70  90 SW3       30.07R
MONROE         FAIR      72  70  93 W3        30.05R
WADESBORO        N/A     72  70  94 MISG      30.05R FOG
ROCKINGHAM     FAIR      72  67  87 CALM      30.05R
RUTHERFORDTON  FAIR      70  70 100 CALM      30.08R
ASHEVILLE      MOCLDY    71  69  93 CALM      30.11F

$$